Lovelock, NV

4:05 AM PDT on September 30, 2016 (GMT -0700)
Derby

Weather History for KLOL - November, 2012

Change the Weather History Date:

Monday, November 5, 2012

  Actual Average Record
Temperature  
Mean Temperature 50 °F -  
Max Temperature 70 °F 59 °F 75 °F (1980)
Min Temperature 30 °F 28 °F 8 °F (1959)
Degree Days  
Heating Degree Days 15    
Moisture  
Dew Point 29 °F    
Average Humidity 54    
Maximum Humidity 82    
Minimum Humidity 24    
Precipitation  
Precipitation 0.00 in - - ()
Sea Level Pressure  
Sea Level Pressure 30.37 in    
Wind  
Wind Speed 2 mph (ENE)    
Max Wind Speed 7 mph    
Max Gust Speed -    
Visibility 10 miles    
Events Rain    
Averages and records for this station are not official NWS values.
T = Trace of Precipitation, MM = Missing Value Source: NWS Daily Summary

Daily Weather History Graph

Daily Weather History Graph

Search for Another Location

Airport or City:

Trip Planner

Search our weather history database for the weather conditions in past years. The results will help you decide how hot, cold, wet, or windy it might be!

Date:

Astronomy

Nov. 05, 2012 Rise Set
Actual Time 6:28 AM PST 4:46 PM PST
Civil Twilight 6:00 AM PST 5:14 PM PST
Nautical Twilight 5:28 AM PST 5:47 PM PST
Astronomical Twilight 4:56 AM PST 6:18 PM PST
Moon 10:28 PM PST (11/5) 11:50 AM PST (11/5)
Length of Visible Light 11h 14m
Length of Day
10h 17m
Waning Gibbous, 62% of the Moon is Illuminated
Nov 5
Waning Gibbous
Nov 6
Last Quarter
Nov 13
New
Nov 20
First Quarter
Nov 28
Full

Hourly Weather History & Observations

Time (PST) Temp. Windchill Dew Point Humidity Pressure Visibility Wind Dir Wind Speed Gust Speed Precip Events Conditions
12:53 AM 37.9 °F - 28.9 °F 70% 30.40 in 10.0 mi Calm Calm - N/A   Clear
1:53 AM 35.1 °F 32.2 °F 25.0 °F 67% 30.41 in 10.0 mi ESE 3.5 mph - N/A   Clear
2:53 AM 34.0 °F 29.8 °F 25.0 °F 70% 30.40 in 10.0 mi West 4.6 mph - N/A   Clear
3:53 AM 33.1 °F 26.9 °F 26.1 °F 75% 30.40 in 10.0 mi East 6.9 mph - N/A   Clear
4:53 AM 30.9 °F - 24.1 °F 76% 30.42 in 10.0 mi Calm Calm - N/A   Clear
5:53 AM 30.9 °F - 21.9 °F 69% 30.44 in 10.0 mi Calm Calm - N/A   Clear
6:53 AM 30.0 °F - 25.0 °F 82% 30.47 in 10.0 mi Calm Calm - N/A   Clear
7:53 AM 42.1 °F 40.2 °F 30.0 °F 62% 30.47 in 10.0 mi NE 3.5 mph - N/A   Clear
8:53 AM 48.0 °F - 30.0 °F 50% 30.47 in 10.0 mi Calm Calm - N/A   Clear
9:53 AM 54.0 °F - 32.0 °F 43% 30.43 in 10.0 mi NW 3.5 mph - N/A   Clear
10:53 AM 60.1 °F - 32.0 °F 35% 30.40 in 10.0 mi NNW 4.6 mph - 0.00 in Rain Light Rain
11:53 AM 64.9 °F - 30.9 °F 28% 30.37 in 10.0 mi NE 3.5 mph - 0.00 in   Clear
12:53 PM 69.1 °F - 30.9 °F 24% 30.32 in 10.0 mi Calm Calm - N/A   Clear
1:53 PM 69.1 °F - 32.0 °F 25% 30.32 in 10.0 mi Calm Calm - N/A   Clear
2:53 PM 70.0 °F - 33.1 °F 26% 30.31 in 10.0 mi Calm Calm - N/A   Clear
3:53 PM 69.1 °F - 35.1 °F 29% 30.30 in 10.0 mi East 4.6 mph - N/A   Clear
4:53 PM 64.9 °F - 37.0 °F 36% 30.31 in 10.0 mi Calm Calm - N/A   Clear
5:53 PM 52.0 °F - 32.0 °F 47% 30.34 in 10.0 mi NNW 3.5 mph - N/A   Clear
6:53 PM 50.0 °F - 30.9 °F 48% 30.35 in 10.0 mi ENE 4.6 mph - N/A   Clear
7:53 PM 42.1 °F 40.2 °F 26.1 °F 53% 30.34 in 10.0 mi South 3.5 mph - N/A   Clear
8:53 PM 39.0 °F 36.8 °F 30.0 °F 70% 30.34 in 10.0 mi SSE 3.5 mph - N/A   Clear
9:53 PM 37.9 °F - 27.0 °F 65% 30.33 in 10.0 mi Calm Calm - N/A   Clear
10:53 PM 35.1 °F 32.2 °F 24.1 °F 64% 30.32 in 10.0 mi SSE 3.5 mph - N/A   Clear
11:53 PM 35.1 °F 32.2 °F 27.0 °F 72% 30.30 in 10.0 mi East 3.5 mph - N/A   Clear